SHT14H EGLL-EGJB

Flight info

Callsign SHT14H
Flight time 0h 39m
Altitude 22000
Route GASGU N514 EVTES N621 SAM N63 LELNA
Aircraft A319/M-SDE3FGIJ1KRWXY/LB1

Departure

Time 2026-04-30 18:49
Airport London Heathrow Airport (EGLL)

Arrival

Time 2026-04-30 19:29
Airport Guernsey Airport (EGJB)
Time Latitude Longitude Altitude Speed Heading
2026-04-30 18:25 51.46823 -0.48820 79 ft 0 kts 179°
2026-04-30 18:37 51.46834 -0.48821 79 ft 2 kts 179°
2026-04-30 18:37 51.46848 -0.48821 79 ft 0 kts 179°
2026-04-30 18:38 51.46859 -0.48823 79 ft 2 kts 156°
2026-04-30 18:38 51.46871 -0.48837 79 ft 2 kts 124°
2026-04-30 18:38 51.46876 -0.48858 79 ft 0 kts 94°
2026-04-30 18:38 51.46876 -0.48868 79 ft 1 kts 87°
2026-04-30 18:39 51.46876 -0.48871 79 ft 0 kts 89°
2026-04-30 18:40 51.46876 -0.48835 79 ft 7 kts 89°
2026-04-30 18:40 51.46857 -0.48759 78 ft 8 kts 160°
2026-04-30 18:41 51.46789 -0.48750 79 ft 10 kts 180°
2026-04-30 18:41 51.46712 -0.48751 79 ft 11 kts 180°
2026-04-30 18:41 51.46657 -0.48753 79 ft 4 kts 183°
2026-04-30 18:41 51.46646 -0.48754 79 ft 2 kts 183°
2026-04-30 18:42 51.46629 -0.48756 79 ft 0 kts 187°
2026-04-30 18:45 51.46478 -0.48659 79 ft 0 kts 91°
2026-04-30 18:48 51.46475 -0.48444 79 ft 46 kts 91°
2026-04-30 18:48 51.46481 -0.47547 79 ft 114 kts 90°
2026-04-30 18:48 51.46492 -0.45955 108 ft 165 kts 89°
2026-04-30 18:49 51.46507 -0.44074 635 ft 172 kts 90°
2026-04-30 18:49 51.46529 -0.42236 1590 ft 162 kts 97°
2026-04-30 18:49 51.46272 -0.40604 2350 ft 157 kts 118°
2026-04-30 18:49 51.45593 -0.39135 2750 ft 172 kts 134°
2026-04-30 18:50 51.44768 -0.37612 3152 ft 190 kts 126°
2026-04-30 18:50 51.44024 -0.35766 3542 ft 210 kts 125°
2026-04-30 18:50 51.42956 -0.34070 3948 ft 231 kts 153°
2026-04-30 18:50 51.41331 -0.33542 4534 ft 250 kts 176°
2026-04-30 18:51 51.39580 -0.33513 5293 ft 255 kts 177°
2026-04-30 18:51 51.37819 -0.34012 5771 ft 264 kts 201°
2026-04-30 18:51 51.36306 -0.35713 5995 ft 271 kts 219°
2026-04-30 18:51 51.34977 -0.37833 5995 ft 271 kts 222°
2026-04-30 18:52 51.33659 -0.39964 5994 ft 271 kts 221°
2026-04-30 18:52 51.32288 -0.42019 5990 ft 269 kts 216°
2026-04-30 18:52 51.30821 -0.43845 5993 ft 270 kts 218°
2026-04-30 18:52 51.29705 -0.46291 5986 ft 278 kts 245°
2026-04-30 18:53 51.29247 -0.49316 5998 ft 282 kts 257°
2026-04-30 18:53 51.28909 -0.52395 5995 ft 281 kts 256°
2026-04-30 18:53 51.28493 -0.55454 5995 ft 281 kts 253°
2026-04-30 18:53 51.27998 -0.58462 5991 ft 280 kts 251°
2026-04-30 18:54 51.27449 -0.61415 5987 ft 279 kts 250°
2026-04-30 18:54 51.26872 -0.64401 5986 ft 279 kts 250°
2026-04-30 18:54 51.26297 -0.67348 5986 ft 279 kts 249°
2026-04-30 18:54 51.25721 -0.70294 5986 ft 280 kts 249°
2026-04-30 18:55 51.25140 -0.73266 5986 ft 280 kts 249°
2026-04-30 18:55 51.23979 -0.79206 5984 ft 280 kts 249°
2026-04-30 18:55 51.23397 -0.82175 5984 ft 279 kts 249°
2026-04-30 18:56 51.22236 -0.88082 5980 ft 279 kts 249°
2026-04-30 18:56 51.21661 -0.91005 5980 ft 279 kts 249°
2026-04-30 18:56 51.21077 -0.93932 5979 ft 278 kts 246°
2026-04-30 18:57 51.19141 -0.99256 6325 ft 281 kts 229°
2026-04-30 18:57 51.17949 -1.01694 7316 ft 282 kts 228°
2026-04-30 18:57 51.16750 -1.04128 8330 ft 281 kts 228°
2026-04-30 18:58 51.14327 -1.09058 10032 ft 289 kts 228°
2026-04-30 18:58 51.13094 -1.11576 10755 ft 296 kts 228°
2026-04-30 18:58 51.11801 -1.14212 11179 ft 313 kts 228°
2026-04-30 18:59 51.09000 -1.19802 12392 ft 329 kts 223°
2026-04-30 19:00 51.03569 -1.26375 14535 ft 333 kts 208°
2026-04-30 19:00 51.01609 -1.28349 15228 ft 337 kts 208°
2026-04-30 19:00 50.97648 -1.32362 16583 ft 343 kts 208°
2026-04-30 19:01 50.93493 -1.36147 17844 ft 347 kts 203°
2026-04-30 19:01 50.91349 -1.37862 18495 ft 350 kts 203°
2026-04-30 19:02 50.86975 -1.41355 19781 ft 355 kts 203°
2026-04-30 19:02 50.82541 -1.44888 20992 ft 361 kts 203°
2026-04-30 19:03 50.78067 -1.48447 22032 ft 366 kts 203°
2026-04-30 19:03 50.73503 -1.52069 22131 ft 366 kts 203°
2026-04-30 19:04 50.68947 -1.55678 22130 ft 366 kts 203°
2026-04-30 19:04 50.64397 -1.59274 22130 ft 367 kts 203°
2026-04-30 19:05 50.59825 -1.62877 22120 ft 368 kts 203°
2026-04-30 19:05 50.55255 -1.66471 22129 ft 368 kts 202°
2026-04-30 19:06 50.50660 -1.70078 22122 ft 368 kts 202°
2026-04-30 19:06 50.48371 -1.71871 22121 ft 369 kts 202°
2026-04-30 19:06 50.43774 -1.75467 22118 ft 369 kts 202°
2026-04-30 19:07 50.39184 -1.79052 22115 ft 369 kts 202°
2026-04-30 19:07 50.36892 -1.80838 22116 ft 370 kts 203°
2026-04-30 19:08 50.32290 -1.84419 22111 ft 370 kts 202°
2026-04-30 19:08 50.27696 -1.87984 21611 ft 372 kts 203°
2026-04-30 19:08 50.25368 -1.89789 21049 ft 371 kts 203°
2026-04-30 19:09 50.20825 -1.93310 20110 ft 354 kts 203°
2026-04-30 19:09 50.18676 -1.94979 19722 ft 334 kts 202°
2026-04-30 19:09 50.16666 -1.96546 19340 ft 317 kts 202°
2026-04-30 19:10 50.12852 -1.99586 18571 ft 305 kts 202°
2026-04-30 19:10 50.09126 -2.02578 17837 ft 302 kts 202°
2026-04-30 19:11 50.07256 -2.04085 17472 ft 301 kts 202°
2026-04-30 19:11 50.03569 -2.07046 16736 ft 299 kts 202°
2026-04-30 19:11 50.01716 -2.08525 16369 ft 298 kts 202°
2026-04-30 19:12 49.99874 -2.09997 16025 ft 296 kts 202°
2026-04-30 19:12 49.98069 -2.11432 15682 ft 295 kts 202°
2026-04-30 19:12 49.96262 -2.12946 15324 ft 296 kts 210°
2026-04-30 19:13 49.94078 -2.18371 14639 ft 311 kts 252°
2026-04-30 19:13 49.93270 -2.24928 13948 ft 310 kts 255°
2026-04-30 19:13 49.92905 -2.28224 13599 ft 309 kts 256°
2026-04-30 19:14 49.92543 -2.31484 13261 ft 308 kts 256°
2026-04-30 19:14 49.92181 -2.34749 12901 ft 308 kts 256°
2026-04-30 19:14 49.91815 -2.38003 12468 ft 310 kts 256°
2026-04-30 19:14 49.91440 -2.41311 12034 ft 312 kts 256°
2026-04-30 19:15 49.91060 -2.44615 11587 ft 314 kts 256°
2026-04-30 19:15 49.90300 -2.51151 10708 ft 305 kts 256°
2026-04-30 19:15 49.89921 -2.54388 10256 ft 300 kts 256°
2026-04-30 19:16 49.89549 -2.57552 9853 ft 293 kts 256°
2026-04-30 19:16 49.89194 -2.60566 9558 ft 284 kts 256°
2026-04-30 19:16 49.88506 -2.66410 8980 ft 268 kts 255°
2026-04-30 19:17 49.88173 -2.69251 8752 ft 262 kts 255°
2026-04-30 19:17 49.87000 -2.74317 8159 ft 248 kts 220°
2026-04-30 19:17 49.85574 -2.75744 7723 ft 245 kts 199°
2026-04-30 19:18 49.82885 -2.77179 7144 ft 245 kts 191°
2026-04-30 19:18 49.80667 -2.77906 6621 ft 249 kts 188°
2026-04-30 19:18 49.78953 -2.78420 6191 ft 253 kts 188°
2026-04-30 19:19 49.77225 -2.78948 5891 ft 251 kts 189°
2026-04-30 19:19 49.75529 -2.79478 5609 ft 250 kts 189°
2026-04-30 19:19 49.72156 -2.80549 5031 ft 246 kts 189°
2026-04-30 19:20 49.70492 -2.81080 4746 ft 245 kts 189°
2026-04-30 19:20 49.68817 -2.81614 4447 ft 243 kts 189°
2026-04-30 19:20 49.65523 -2.82667 3853 ft 242 kts 189°
2026-04-30 19:21 49.63893 -2.83189 3560 ft 241 kts 189°
2026-04-30 19:21 49.60627 -2.84232 3017 ft 239 kts 189°
2026-04-30 19:22 49.57367 -2.85272 2414 ft 239 kts 189°
2026-04-30 19:22 49.52703 -2.86760 2013 ft 218 kts 190°
2026-04-30 19:23 49.48484 -2.87111 2009 ft 197 kts 176°
2026-04-30 19:24 49.45866 -2.86935 1993 ft 178 kts 176°
2026-04-30 19:24 49.44656 -2.86852 2068 ft 175 kts 176°
2026-04-30 19:24 49.42837 -2.84890 1998 ft 179 kts 104°
2026-04-30 19:25 49.42987 -2.79096 2005 ft 181 kts 91°
2026-04-30 19:26 49.43089 -2.75349 1969 ft 164 kts 91°
2026-04-30 19:26 49.43183 -2.71885 1650 ft 162 kts 91°
2026-04-30 19:26 49.43227 -2.70172 1465 ft 161 kts 91°
2026-04-30 19:27 49.43315 -2.66801 1022 ft 152 kts 90°
2026-04-30 19:27 49.43382 -2.63877 682 ft 126 kts 90°
2026-04-30 19:28 49.43422 -2.62534 480 ft 124 kts 88°
2026-04-30 19:28 49.43496 -2.60058 321 ft 88 kts 87°
2026-04-30 19:29 49.43507 -2.59220 331 ft 13 kts 133°
2026-04-30 19:29 49.43418 -2.59203 330 ft 13 kts 181°
2026-04-30 19:30 49.43366 -2.59498 333 ft 9 kts 266°
2026-04-30 19:30 49.43299 -2.59593 331 ft 5 kts 177°
2026-04-30 19:31 49.43258 -2.59591 331 ft 0 kts 177°